CW6037 Weather Reports


time (UTC)temp
F
wind
direction
speed
knots
gust
knots
rain 1hr
in
rain 24hr
in
rain mn
in
humidity
%
barometer
mb
20180526172526 84 265 1.7 5.2 0.00 0.00 0.00 47 1009.0
20180526171626 84 264 3.5 8.7 0.00 0.00 0.00 39 1008.9
20180526170726 84 265 1.7 7.0 0.00 0.00 0.00 41 1008.9
20180526165826 84 265 1.7 6.1 0.00 0.00 0.00 50 1009.0
20180526164926 84 261 3.5 9.6 0.00 0.00 0.00 43 1009.0
20180526164026 84 267 4.3 13.0 0.00 0.00 0.00 40 1008.9
20180526163126 85 268 2.6 13.0 0.00 0.00 0.00 43 1008.9
20180526162226 85 264 3.5 9.6 0.00 0.00 0.00 47 1009.0
20180526161326 84 269 4.3 14.8 0.00 0.00 0.00 44 1009.0
20180526160426 84 268 2.6 6.1 0.00 0.00 0.00 51 1009.0
20180526155526 84 274 2.6 11.3 0.00 0.00 0.00 43 1008.7
20180526154626 83 278 2.6 7.8 0.00 0.00 0.00 57 1008.8
20180526153726 82 265 4.3 12.2 0.00 0.00 0.00 47 1008.8
20180526152826 82 276 1.7 8.7 0.00 0.00 0.00 52 1008.9
20180526151926 82 238 0.9 2.6 0.00 0.00 0.00 65 1009.0
20180526151026 81 260 2.6 6.1 0.00 0.00 0.00 62 1009.0
20180526150126 80 217 1.7 5.2 0.00 0.00 0.00 65 1008.9
20180526145226 80 254 1.7 5.2 0.00 0.00 0.00 66 1009.0
20180526144326 79 228 0.9 5.2 0.00 0.00 0.00 68 1009.0
20180526143426 78 172 1.7 5.2 0.00 0.00 0.00 72 1009.0
20180526142526 78 154 1.7 6.1 0.00 0.00 0.00 73 1009.0
20180526141626 78 233 1.7 6.1 0.00 0.00 0.00 73 1009.0
20180526140726 77 237 1.7 5.2 0.00 0.00 0.00 74 1009.1
20180526135826 76 230 1.7 7.0 0.00 0.00 0.00 76 1009.2
20180526134026 75 255 0.9 4.3 0.00 0.00 0.00 79 1009.3
20180526133126 74 223 0.9 7.8 0.00 0.00 0.00 82 1009.3
20180526132226 73 235 0.9 4.3 0.00 0.00 0.00 83 1009.3
20180526131326 72 171 1.7 5.2 0.00 0.00 0.00 85 1009.6
20180526130426 72 170 0.9 7.0 0.00 0.00 0.00 87 1009.6
20180526125526 70 203 0.9 5.2 0.00 0.00 0.00 89 1009.5
20180526124626 69 168 0.9 7.0 0.00 0.00 0.00 92 1009.5
20180526123726 67 160 0.9 4.3 0.00 0.00 0.00 97 1009.5
20180526122826 66 178 0.0 1.7 0.00 0.00 0.00 100 1009.4
20180526121926 64 0 0.0 0.0 0.00 0.00 0.00 100 1009.3
20180526121026 63 0 0.0 0.0 0.00 0.00 0.00 100 1009.1
20180526120126 62 0 0.0 0.0 0.00 0.00 0.00 100 1009.1
20180526115226 61 0 0.0 0.0 0.00 0.00 0.00 100 1009.0
20180526114326 60 0 0.0 0.0 0.00 0.00 0.00 99 1009.0
20180526113426 59 0 0.0 0.0 0.00 0.00 0.00 99 1008.9
20180526112526 58 0 0.0 0.0 0.00 0.00 0.00 99 1009.0
20180526111626 57 0 0.0 0.0 0.00 0.00 0.00 99 1009.0
20180526110726 57 0 0.0 0.0 0.00 0.00 0.00 99 1008.9
20180526105826 56 0 0.0 0.0 0.00 0.00 0.00 98 1009.1
20180526104926 56 0 0.0 0.0 0.00 0.00 0.00 98 1009.1
20180526104026 55 0 0.0 0.0 0.00 0.00 0.00 98 1009.1
20180526103126 55 0 0.0 0.0 0.00 0.00 0.00 98 1009.1
20180526102226 55 0 0.0 0.0 0.00 0.00 0.00 97 1009.0
20180526101326 55 0 0.0 0.0 0.00 0.00 0.00 97 1009.0
20180526100426 55 0 0.0 0.0 0.00 0.00 0.00 97 1009.0
20180526095526 55 0 0.0 0.0 0.00 0.00 0.00 97 1008.6
20180526094626 55 0 0.0 0.0 0.00 0.00 0.00 97 1008.6
20180526093726 55 0 0.0 0.0 0.00 0.00 0.00 97 1008.5
20180526092826 55 0 0.0 0.0 0.00 0.00 0.00 96 1008.5
20180526091926 56 0 0.0 0.0 0.00 0.00 0.00 97 1008.5
20180526091026 56 0 0.0 0.0 0.00 0.00 0.00 97 1008.5
20180526090126 56 0 0.0 0.0 0.00 0.00 0.00 97 1008.5
20180526085226 56 0 0.0 0.0 0.00 0.00 0.00 96 1008.4
20180526084326 56 0 0.0 0.0 0.00 0.00 0.00 96 1008.4
20180526083426 56 0 0.0 0.0 0.00 0.00 0.00 96 1008.4
20180526082526 56 0 0.0 0.0 0.00 0.00 0.00 96 1008.4
20180526081626 56 0 0.0 0.0 0.00 0.00 0.00 96 1008.4
20180526080726 56 0 0.0 0.0 0.00 0.00 0.00 96 1008.4
20180526075826 57 0 0.0 0.0 0.00 0.00 0.00 96 1008.5
20180526074926 57 0 0.0 0.0 0.00 0.00 0.00 96 1008.5
20180526074026 57 0 0.0 0.0 0.00 0.00 0.00 96 1008.6
20180526073126 57 0 0.0 0.0 0.00 0.00 0.00 96 1008.6
20180526072226 57 0 0.0 0.0 0.00 0.00 0.00 96 1008.8
20180526071326 58 0 0.0 0.0 0.00 0.00 0.00 95 1008.9
20180526070426 58 0 0.0 0.0 0.00 0.00 0.00 95 1008.9
20180526065526 58 0 0.0 0.0 0.00 0.00 0.00 95 1008.9
20180526064626 58 0 0.0 0.0 0.00 0.00 0.00 95 1008.9
20180526063726 58 0 0.0 0.0 0.00 0.00 0.00 95 1008.9
20180526062826 58 0 0.0 0.0 0.00 0.00 0.00 95 1008.9
20180526061926 58 0 0.0 0.0 0.00 0.00 0.00 95 1008.9
20180526061026 58 0 0.0 0.0 0.00 0.00 0.00 95 1008.9
20180526060126 59 0 0.0 0.0 0.00 0.00 0.00 94 1008.9
20180526055226 59 0 0.0 0.0 0.00 0.00 0.00 94 1008.7
20180526054326 59 0 0.0 0.0 0.00 0.00 0.00 94 1008.7
20180526053426 59 0 0.0 0.0 0.00 0.00 0.00 94 1008.7
20180526052526 60 0 0.0 0.0 0.00 0.00 0.00 94 1008.9
20180526051626 60 0 0.0 0.0 0.00 0.00 0.00 94 1008.9
20180526050726 60 0 0.0 0.0 0.00 0.00 0.00 94 1009.0
20180526045826 60 0 0.0 0.0 0.00 0.00 0.00 93 1009.2
20180526044926 60 0 0.0 0.0 0.00 0.00 0.00 93 1009.2
20180526044026 60 0 0.0 0.0 0.00 0.00 0.00 92 1009.2
20180526043126 61 0 0.0 0.0 0.00 0.00 0.00 92 1009.2
20180526042226 61 0 0.0 0.0 0.00 0.00 0.00 92 1009.2
20180526041326 61 0 0.0 0.0 0.00 0.00 0.00 91 1009.3
20180526040426 61 0 0.0 0.0 0.00 0.00 0.00 91 1009.3
20180526035526 62 0 0.0 0.0 0.00 0.00 0.00 90 1009.1
20180526034626 62 0 0.0 0.0 0.00 0.00 0.00 90 1009.1
20180526033726 62 0 0.0 0.0 0.00 0.00 0.00 89 1009.1
20180526032826 63 0 0.0 0.0 0.00 0.00 0.00 89 1009.0
20180526031926 63 0 0.0 0.0 0.00 0.00 0.00 88 1009.0
20180526031026 63 0 0.0 0.0 0.00 0.00 0.00 88 1009.1
20180526030126 64 0 0.0 0.0 0.00 0.00 0.00 87 1009.1
20180526025226 64 0 0.0 0.0 0.00 0.00 0.00 87 1009.1
20180526024326 64 0 0.0 0.0 0.00 0.00 0.00 86 1009.2
20180526023426 65 0 0.0 0.0 0.00 0.00 0.00 85 1009.2
20180526022526 65 0 0.0 0.0 0.00 0.00 0.00 84 1009.2
20180526021626 66 0 0.0 0.0 0.00 0.00 0.00 84 1009.2
20180526020726 66 0 0.0 0.0 0.00 0.00 0.00 83 1009.4
20180526015826 67 0 0.0 0.0 0.00 0.00 0.00 82 1009.4
20180526014926 67 243 0.0 0.9 0.00 0.00 0.00 80 1009.4
20180526014026 68 0 0.0 0.0 0.00 0.00 0.00 79 1009.1
20180526013126 69 0 0.0 0.0 0.00 0.00 0.00 79 1009.1
20180526012226 69 0 0.0 0.0 0.00 0.00 0.00 76 1009.0
20180526011326 70 0 0.0 0.0 0.00 0.00 0.00 74 1009.0
20180526010426 71 0 0.0 0.0 0.00 0.00 0.00 73 1009.0
20180526005526 72 0 0.0 0.0 0.00 0.00 0.00 72 1009.0
20180526004626 72 0 0.0 0.0 0.00 0.00 0.00 68 1009.0
20180526003726 73 0 0.0 0.0 0.00 0.00 0.00 67 1009.0
20180526002826 74 0 0.0 0.0 0.00 0.00 0.00 64 1009.0
20180526001926 75 243 0.0 0.9 0.00 0.00 0.00 63 1009.0
20180526001026 77 243 0.0 0.9 0.00 0.00 0.00 60 1009.0
20180526000126 78 243 0.0 0.9 0.00 0.00 0.00 57 1009.0
20180525235226 80 243 0.0 0.9 0.00 0.00 0.00 54 1009.0
20180525234326 81 226 0.9 4.3 0.00 0.00 0.00 49 1008.9
20180525233426 81 240 0.0 3.5 0.00 0.00 0.00 48 1008.9
20180525232526 81 248 0.9 5.2 0.00 0.00 0.00 47 1008.9
20180525231626 82 266 1.7 5.2 0.00 0.00 0.00 45 1008.9
20180525230726 82 260 1.7 7.0 0.00 0.00 0.00 44 1008.9
20180525225826 82 251 1.7 8.7 0.00 0.00 0.00 44 1008.9
20180525224926 83 245 1.7 8.7 0.00 0.00 0.00 43 1008.9
20180525224026 83 252 1.7 7.0 0.00 0.00 0.00 42 1009.0
20180525223126 83 257 3.5 9.6 0.00 0.00 0.00 42 1009.0
20180525222226 83 251 3.5 10.4 0.00 0.00 0.00 41 1009.0
20180525221326 84 244 2.6 8.7 0.00 0.00 0.00 41 1009.0
20180525220426 84 252 2.6 6.1 0.00 0.00 0.00 41 1009.0
20180525215526 84 266 2.6 7.0 0.00 0.00 0.00 40 1009.0
20180525214626 84 235 1.7 7.8 0.00 0.00 0.00 39 1009.0
20180525213726 84 239 1.7 6.1 0.00 0.00 0.00 37 1009.0
20180525212826 84 260 3.5 8.7 0.00 0.00 0.00 38 1009.1
20180525211926 84 240 3.5 9.6 0.00 0.00 0.00 36 1009.1
20180525211026 85 240 2.6 10.4 0.00 0.00 0.00 36 1009.5
20180525210126 85 257 1.7 8.7 0.00 0.00 0.00 36 1009.5
20180525205226 85 171 2.6 8.7 0.00 0.00 0.00 37 1009.8
20180525204326 85 212 2.6 9.6 0.00 0.00 0.00 37 1009.7
20180525203426 86 242 3.5 10.4 0.00 0.00 0.00 35 1009.6
20180525202526 86 232 2.6 7.8 0.00 0.00 0.00 36 1009.8
20180525201626 86 259 2.6 8.7 0.00 0.00 0.00 36 1009.8
20180525200726 86 258 3.5 8.7 0.00 0.00 0.00 37 1010.0
20180525195826 86 275 3.5 9.6 0.00 0.00 0.00 39 1010.1
20180525194926 86 234 3.5 10.4 0.00 0.00 0.00 38 1010.1
20180525194026 86 259 4.3 9.6 0.00 0.00 0.00 38 1010.2
20180525193126 85 267 4.3 9.6 0.00 0.00 0.00 40 1010.2
20180525192226 85 248 4.3 12.2 0.00 0.00 0.00 39 1010.6
20180525191326 85 235 3.5 10.4 0.00 0.00 0.00 35 1010.6
20180525190426 86 247 3.5 12.2 0.00 0.00 0.00 39 1010.6
20180525184626 85 270 1.7 8.7 0.00 0.00 0.00 42 1010.9
20180525183726 85 255 3.5 8.7 0.00 0.00 0.00 43 1011.2
20180525182826 85 253 2.6 7.0 0.00 0.00 0.00 39 1011.3
20180525181926 84 274 4.3 16.5 0.00 0.00 0.00 41 1011.3
20180525181026 84 267 4.3 12.2 0.00 0.00 0.00 41 1011.5
20180525180126 84 269 4.3 11.3 0.00 0.00 0.00 39 1011.5
20180525175226 84 244 3.5 10.4 0.00 0.00 0.00 40 1011.6
20180525174326 83 254 2.6 9.6 0.00 0.00 0.00 39 1011.6
20180525173426 83 254 3.5 7.0 0.00 0.00 0.00 39 1011.6